User: anonymous
Location: Unspecified
(0.0000°N, 0.0000°E)
Time: 21:35:02
(UTC+00:00)
Language:

GSAT 7 - Orbit

View from above orbital plane
View from above orbital plane
View from above satellite
View from above satellite

Ground track
Ground track

The orbit data is extracted from the following two-line orbital elements,

1 39234U 13044B   14259.90068712 -.00000104  00000-0  00000+0 0  3266
2 39234 000.0234 254.0977 0008364 002.3899 137.5161 01.00272573  3888
Epoch (UTC): 16 September 2014 21:36:59
Eccentricity: 0.0008364
inclination: 0.0234°
perigee height: 35751 km
apogee height: 35821 km
right ascension of ascending node: 254.0977°
argument of perigee: 2.3899°
revolutions per day: 1.00272573
mean anomaly at epoch: 137.5161°
orbit number at epoch: 388

The dashed part of the orbit path shows where the satellite is in the earth's shadow,  

DLR